Lapse_Rate
-2.0 -2.3 -2.5 -2.7 -2.9 -3.0 -3.0 -3.1 -3.1 -3.1 -3.4 -3.8 -4.1 -4.4 -4.5 -4.8 -4.1 0.8 7.5 6.8 4.7 0.4 3.1 9.1 9.4 9.2 9.3 8.6 8.7 8.6 6.5 6.5 6.5 6.5 6.5 7.5 6.6 8.0 8.4 7.9 8.0 8.3 8.3 8.9 9.5
-1.9 -2.1 -2.4 -2.5 -2.7 -2.9 -3.1 -3.1 -3.2 -3.3 -3.4 -3.7 -4.1 -4.4 -4.3 -4.7 3.1 7.3 7.6 2.1 0.5 1.0 7.2 8.8 8.5 8.8 8.4 8.1 8.1 7.0 6.5 6.5 6.5 6.6 6.5 7.1 7.1 7.4 7.3 7.4 7.5 7.9 8.8 9.3 9.4
-1.6 -1.8 -2.2 -2.5 -2.6 -2.6 -2.7 -3.0 -3.4 -3.6 -3.8 -3.9 -4.0 -4.2 -4.2 -3.4 7.1 8.5 2.9 0.6 1.2 1.4 9.7 9.4 9.2 8.7 7.6 7.9 7.5 7.1 6.5 6.5 6.8 7.3 7.6 7.2 7.1 7.8 7.0 6.5 7.5 7.5 8.3 9.0 9.1
-1.6 -2.0 -2.3 -2.4 -2.5 -2.6 -2.9 -3.1 -3.4 -4.0 -4.2 -4.2 -4.1 -3.9 -3.7 3.0 6.5 9.1 2.3 1.7 2.0 6.4 9.4 9.1 8.7 7.8 6.9 6.5 7.6 6.5 6.9 7.0 7.2 7.6 7.4 6.8 7.7 7.1 7.3 7.4 8.4 8.5 8.8 9.0 8.9
-1.6 -2.0 -2.1 -2.4 -2.6 -2.5 -2.9 -3.5 -4.0 -4.2 -4.4 -4.4 -4.2 -3.8 1.1 8.0 8.2 8.2 1.9 2.2 4.9 7.4 9.0 8.7 8.2 7.8 6.5 6.8 7.0 6.5 6.5 7.2 7.5 7.6 7.5 7.7 7.0 6.9 7.3 8.1 8.6 8.7 8.8 8.8 8.9
-1.8 -2.0 -2.1 -2.3 -2.5 -2.7 -3.1 -3.7 -4.4 -4.7 -4.8 -4.5 -4.2 -3.7 4.4 6.9 9.7 8.1 7.3 7.2 8.7 8.8 9.0 9.0 8.3 8.5 7.3 6.9 6.6 7.1 7.0 7.0 7.4 7.4 7.5 6.8 6.9 7.4 7.5 8.3 8.3 8.5 8.6 8.9 8.9
-1.2 -1.6 -2.0 -2.4 -2.5 -2.9 -3.5 -4.3 -4.9 -5.1 -5.0 -4.7 -4.0 -0.4 7.3 8.2 9.2 9.1 8.0 9.4 9.6 9.3 8.8 9.2 9.1 8.2 8.0 6.5 7.7 7.3 6.5 6.5 6.8 7.2 6.7 7.5 6.5 6.5 7.8 8.2 8.0 8.3 8.5 8.7 8.8
-0.8 -1.2 -1.7 -2.1 -2.5 -3.3 -3.8 -4.8 -5.4 -4.8 -4.3 -3.8 -3.3 3.0 7.9 8.9 8.2 7.7 9.3 9.4 9.2 9.6 9.4 9.5 9.3 8.5 7.7 7.9 7.2 6.5 6.5 6.5 6.5 6.8 7.1 7.0 6.5 6.5 8.0 8.0 7.7 8.0 8.3 8.5 8.7
-0.7 -1.1 -1.9 -2.3 -2.6 -3.6 -4.5 -5.2 -4.7 -3.1 -3.1 -2.7 3.2 6.2 7.5 4.7 8.3 9.6 9.7 8.9 9.2 9.4 9.4 9.4 9.0 7.9 7.6 6.5 6.5 6.5 6.5 6.5 6.5 6.9 6.5 6.5 6.5 6.8 8.0 7.9 7.6 8.0 8.2 8.4 8.6
0.2 0.0 -1.5 -2.2 -2.7 -3.9 -4.8 -4.5 -2.3 -2.6 0.8 3.6 5.6 7.5 8.2 7.9 9.1 9.3 9.6 9.4 8.7 8.7 8.4 8.2 7.9 6.5 6.5 6.5 6.5 6.5 6.5 6.5 6.5 6.5 6.5 6.5 6.5 6.5 7.6 7.6 7.6 7.9 8.1 8.3 8.5
-0.2 -0.3 -1.4 -1.7 -2.5 -4.0 -2.4 5.2 7.3 7.9 7.9 7.8 7.8 7.7 8.1 9.1 8.9 8.9 9.3 8.9 8.7 8.1 6.5 7.4 6.5 6.5 6.5 6.5 6.5 6.5 6.5 6.5 6.5 6.5 6.5 6.5 6.5 6.5 7.2 7.5 7.4 7.7 7.9 8.2 8.4
0.0 0.0 -1.1 -2.2 -2.9 -3.4 0.0 8.7 6.7 6.9 7.3 8.6 8.2 8.5 8.9 9.1 7.6 8.5 9.5 7.7 7.2 6.5 6.5 6.5 6.5 6.5 6.5 6.5 6.5 6.5 6.5 6.5 6.5 6.5 6.5 6.5 6.5 6.5 6.6 7.0 7.5 7.6 7.8 8.0 8.3
-0.1 -0.2 -0.5 -2.3 -3.3 1.1 5.4 8.9 6.0 8.2 7.2 7.6 8.4 8.2 8.4 8.9 7.7 7.8 8.7 8.0 6.5 6.5 6.5 6.5 6.5 6.5 6.5 6.5 6.5 6.5 6.5 6.5 6.5 6.5 6.5 6.5 6.5 6.5 6.6 7.2 7.6 7.9 8.1 8.3 8.2
0.6 0.2 -0.0 -2.7 2.7 5.2 8.4 7.1 6.8 7.7 6.5 6.5 6.9 7.8 8.4 8.4 6.8 8.8 9.0 8.0 6.7 6.5 6.5 6.5 6.5 6.5 6.5 6.5 6.5 6.5 6.5 6.5 6.5 6.5 6.5 6.5 6.5 6.5 6.5 6.5 6.5 7.5 8.0 8.2 8.4
1.1 0.5 0.0 -1.2 3.9 6.7 7.9 6.8 6.8 8.6 6.5 6.5 6.8 9.0 8.5 7.3 7.4 7.6 9.1 8.1 6.5 6.5 6.5 6.5 6.5 6.5 6.5 6.5 6.5 6.5 6.5 6.5 6.5 6.5 6.5 6.5 6.5 6.5 6.5 6.5 6.5 7.0 7.7 8.2 8.5
1.6 0.9 0.1 5.1 4.5 4.6 4.7 6.1 7.9 6.5 6.5 6.5 6.9 6.5 6.6 7.1 7.0 7.6 7.9 8.5 7.9 6.5 6.5 6.5 7.2 6.5 6.5 6.5 6.5 6.5 6.5 6.5 6.5 6.5 6.5 6.5 6.5 6.5 6.5 6.5 6.5 6.8 7.7 8.0 8.4
1.4 0.7 0.6 3.5 8.4 5.2 6.1 8.8 6.5 6.5 6.5 6.5 6.5 6.5 6.5 6.5 6.5 6.5 6.5 6.5 6.5 6.5 6.5 6.5 6.5 6.5 6.7 6.5 6.5 6.5 6.5 6.5 6.5 6.5 6.5 6.5 6.5 6.5 6.5 6.5 6.5 6.5 7.4 8.0 8.4
1.4 0.0 3.8 4.1 4.1 4.0 6.7 6.7 6.5 6.5 6.5 6.5 6.5 6.5 6.5 6.5 6.5 6.5 6.5 6.5 6.5 6.5 6.5 6.5 6.5 6.5 6.5 6.5 6.5 6.5 6.5 6.5 6.5 6.5 6.5 6.5 6.5 6.5 6.5 7.0 7.3 7.5 7.6 7.9 8.2
1.8 8.1 8.0 6.8 4.2 5.2 8.3 6.5 6.5 6.5 6.5 6.5 6.5 6.5 6.5 6.5 6.5 6.5 6.5 6.5 6.5 6.5 6.5 6.5 6.5 6.5 6.5 6.5 6.5 6.5 6.5 6.5 6.5 6.5 6.5 6.5 6.5 6.5 6.5 6.5 6.8 7.1 7.4 7.6 8.0
6.6 9.1 9.0 8.6 6.2 8.6 6.8 6.5 6.5 6.5 6.5 6.5 6.5 6.5 6.5 6.5 6.5 6.5 6.5 6.5 6.5 6.5 6.5 6.5 6.5 6.5 6.5 6.6 6.5 6.5 6.5 6.5 6.5 6.5 6.5 6.5 6.5 6.5 6.5 6.5 6.5 6.5 7.0 7.6 8.0
8.8 8.4 8.1 6.3 8.8 8.3 6.5 6.5 6.5 7.3 7.1 6.5 6.5 6.5 6.5 6.5 6.5 6.5 6.5 6.5 6.5 6.5 6.5 6.5 6.5 6.5 6.5 6.5 6.5 6.5 6.5 6.5 6.5 6.5 6.5 6.5 6.5 6.5 6.5 6.5 6.5 6.5 7.1 7.5 7.8
9.1 6.6 9.3 9.2 7.1 7.0 6.5 6.5 5.7 6.5 7.4 6.5 6.5 6.5 6.5 6.5 6.5 6.5 6.5 6.5 6.8 6.5 6.5 6.5 6.5 6.5 6.5 6.5 6.5 6.5 6.5 6.5 6.5 6.5 6.5 6.5 6.5 6.5 6.5 6.5 6.7 6.9 7.3 7.6 7.8
8.4 8.3 9.7 9.5 6.5 6.5 6.5 6.5 6.6 6.5 6.5 6.5 6.5 6.5 6.5 6.5 6.5 6.5 6.5 6.6 6.9 6.5 6.5 6.5 6.5 6.5 6.5 6.5 6.5 6.5 6.5 6.5 6.5 6.5 6.5 6.5 6.5 6.5 6.5 6.5 7.0 7.0 7.3 7.5 7.7
8.5 6.5 8.1 8.7 8.3 6.5 6.5 6.5 6.5 7.2 6.5 6.6 6.5 6.5 6.5 6.5 6.5 6.5 6.5 6.5 7.0 6.7 4.4 6.4 6.5 6.5 6.5 6.5 6.5 6.5 6.5 6.5 6.5 6.5 6.5 6.5 6.5 6.5 6.5 6.5 6.6 7.0 7.4 7.6 7.7
8.6 6.8 7.4 6.5 6.6 6.5 6.5 6.5 6.5 6.5 6.8 6.9 6.5 6.5 6.5 6.5 6.5 6.5 6.5 6.5 6.6 5.6 6.5 6.5 6.5 6.5 6.5 6.5 6.5 6.5 6.5 6.5 6.5 6.5 6.5 6.5 6.5 6.5 6.5 6.5 6.6 7.2 7.3 7.3 7.5
7.8 7.1 7.7 7.4 7.4 6.5 6.5 6.5 6.5 6.5 6.5 6.5 6.5 6.5 6.5 6.5 6.5 6.5 6.5 6.5 6.5 6.5 6.5 6.5 6.5 6.5 6.5 6.5 6.5 6.5 6.5 6.5 6.5 6.5 6.5 6.5 6.5 6.5 6.8 7.2 6.9 7.1 7.2 7.2 7.4
8.8 9.2 8.3 6.9 6.5 6.5 6.5 6.5 6.5 6.5 6.8 7.0 6.6 6.5 6.5 6.5 6.9 7.1 7.2 7.0 6.6 6.5 6.5 6.5 6.5 6.5 6.5 6.5 6.5 6.5 6.5 6.5 6.5 6.5 6.5 6.5 6.5 6.5 6.5 6.5 6.7 7.0 7.2 7.2 7.4
Wind_Speed
24 24 24 25 24 24 23 23 24 24 24 24 23 22 22 22 22 7 9 2 6 26 15 14 13 12 13 8 8 5 7 4 5 5 10 13 9 8 7 12 8 5 9 20 21
24 24 24 25 25 25 25 24 23 24 25 24 23 23 22 21 9 15 1 5 17 27 20 18 15 15 10 12 6 9 8 3 5 7 13 14 9 11 9 13 11 9 15 21 21
24 24 24 24 25 26 26 26 25 25 24 23 22 21 20 19 12 2 5 14 17 21 16 17 15 16 15 9 10 9 10 3 5 7 16 15 10 10 8 13 13 13 19 22 21
26 26 26 26 26 27 27 28 27 26 24 22 20 18 18 6 5 6 7 14 20 23 12 18 16 18 14 13 11 9 3 1 7 9 14 15 13 9 10 7 12 13 20 22 21
26 26 27 28 28 28 29 28 27 27 25 21 17 14 8 8 14 6 8 7 12 19 20 20 23 20 18 14 10 12 5 4 4 11 11 13 12 10 12 3 12 16 22 22 20
27 27 28 29 30 31 30 29 28 29 26 21 14 7 6 15 3 7 7 6 7 18 20 20 17 21 11 13 15 10 5 2 6 12 12 13 13 11 12 7 16 19 22 21 20
27 27 28 29 31 33 33 32 31 30 26 19 8 7 8 17 2 7 8 8 7 14 16 22 15 18 14 12 6 7 9 6 8 12 10 12 13 13 15 13 16 19 19 19 20
29 29 30 31 33 32 33 34 34 25 14 9 11 8 8 2 5 11 13 12 9 12 16 19 12 17 11 7 10 13 11 10 11 14 9 15 14 16 17 16 17 19 18 18 19
27 30 32 32 35 35 35 35 25 7 3 12 8 6 8 6 9 8 11 9 11 10 13 12 13 15 12 16 14 13 14 15 11 15 10 15 7 16 16 17 17 18 19 18 17
26 28 31 32 36 36 38 30 3 4 6 5 4 5 7 7 7 2 8 12 10 14 15 16 13 13 15 17 17 17 18 16 13 16 12 16 9 4 15 18 17 18 18 18 19
29 31 33 33 35 35 20 2 5 7 9 10 2 8 3 4 4 7 12 13 13 18 17 21 17 22 24 22 20 15 15 15 14 14 16 15 14 11 11 16 17 18 19 20 20
29 29 32 35 37 34 11 5 5 5 12 16 22 21 19 6 7 13 15 13 16 19 18 15 22 22 20 22 23 18 18 17 13 9 15 13 15 13 13 16 18 19 20 20 20
30 29 30 35 39 11 8 3 4 10 7 11 13 13 13 19 19 19 18 19 18 20 20 19 20 20 21 20 23 21 20 18 14 12 15 9 14 15 16 17 16 20 20 22 21
28 30 28 37 12 10 2 2 8 6 5 6 7 7 10 9 10 23 23 19 15 22 20 20 18 22 19 24 22 23 21 18 16 14 13 14 11 13 16 18 19 20 21 22 23
29 31 26 20 12 5 5 8 10 4 6 7 7 9 12 11 3 16 22 22 20 18 18 20 21 20 24 24 23 23 17 17 18 18 17 14 9 13 5 14 18 22 23 23 23
29 30 28 6 6 11 12 8 4 7 9 6 8 11 10 13 8 6 23 22 17 20 16 22 15 19 23 21 23 20 12 15 18 16 19 21 14 14 13 15 16 16 22 24 25
33 33 24 13 4 1 7 5 6 9 4 9 10 14 9 10 14 13 22 26 22 21 22 22 21 17 17 23 24 21 18 12 15 15 15 20 16 16 9 12 14 14 19 23 23
35 40 6 9 6 9 6 7 14 4 17 4 7 13 14 9 10 17 19 24 28 24 16 21 22 26 18 26 26 28 26 15 25 16 14 18 16 19 19 20 20 15 11 17 23
39 7 7 3 10 6 8 15 11 16 12 13 12 13 18 14 7 14 20 24 29 27 24 20 27 27 25 19 26 28 27 25 23 20 17 18 15 22 14 17 18 16 14 15 20
10 11 7 3 8 7 10 25 21 16 10 13 21 15 18 19 13 13 16 14 25 30 25 14 15 21 24 21 27 28 23 24 21 25 23 21 21 13 17 19 19 17 14 17 18
7 6 6 4 8 7 14 22 22 24 16 18 21 19 15 12 14 15 14 11 17 25 25 24 15 18 20 26 25 21 20 25 23 22 18 18 18 16 14 13 12 12 13 13 14
5 6 4 4 7 9 14 18 6 16 22 21 18 21 21 19 16 15 13 11 2 17 28 27 15 17 25 26 27 25 25 27 18 25 20 21 17 18 20 18 21 21 15 10 10
5 8 3 6 7 13 15 15 15 20 20 22 26 22 21 22 20 20 18 12 7 8 17 22 21 15 19 19 24 29 27 28 26 21 27 20 19 16 11 12 12 14 13 10 7
4 5 5 7 10 11 15 13 20 15 19 22 21 22 23 23 21 15 17 14 13 16 7 7 19 23 18 24 21 21 27 29 28 20 22 25 22 23 22 18 18 13 13 14 10
4 3 2 5 5 9 12 15 15 14 16 15 19 24 22 23 23 24 20 14 10 9 9 15 18 17 25 23 24 25 25 26 29 29 27 24 29 22 23 18 20 18 16 15 10
4 3 3 11 16 14 13 13 15 15 13 16 18 12 26 22 20 18 19 20 17 14 16 14 14 18 21 24 24 21 25 27 28 28 29 31 30 22 23 25 21 21 19 18 15
3 6 6 7 9 8 11 13 8 10 11 16 15 11 10 8 9 9 12 9 16 16 17 17 14 16 19 21 23 25 27 27 29 28 28 28 25 24 28 24 25 21 22 19 19
Wind_Direction
355 353 349 346 343 340 337 334 332 330 329 327 329 328 327 327 307 212 265 31 174 167 166 163 179 179 190 219 229 255 251 170 132 151 128 151 143 152 105 141 164 136 148 142 147
353 351 348 344 339 336 333 331 328 326 324 324 325 325 324 327 290 276 1 121 144 171 175 171 183 175 195 217 202 229 278 69 120 121 143 160 155 147 164 155 150 138 123 143 156
351 348 345 341 337 332 329 326 325 322 320 319 320 321 319 315 283 163 110 125 152 191 186 193 183 193 224 212 197 207 281 96 150 154 141 159 156 155 162 176 169 158 153 157 164
348 345 342 339 335 330 325 323 321 319 316 315 315 317 315 275 287 104 113 160 170 188 228 211 211 206 229 216 207 239 239 235 132 165 161 164 151 159 167 143 160 160 161 162 171
345 342 338 336 333 327 322 319 318 315 311 309 310 309 286 244 251 156 158 168 192 199 208 202 207 212 229 226 199 230 187 245 185 172 174 155 166 148 171 157 162 153 164 170 178
344 341 336 333 330 325 320 319 316 311 305 301 298 278 243 260 284 173 159 157 196 199 205 212 213 214 254 240 212 214 245 176 209 175 178 178 162 169 170 159 157 165 174 179 183
343 339 335 332 329 323 319 319 315 308 299 288 252 218 244 249 204 187 201 233 201 212 214 210 219 203 223 212 205 183 189 168 183 167 172 190 177 209 150 161 164 176 181 184 189
340 338 334 331 324 321 319 317 315 308 296 265 185 202 258 164 246 239 228 228 224 221 231 202 215 235 240 140 186 199 220 196 163 170 162 195 192 197 159 171 173 179 184 189 192
339 337 332 330 324 322 321 316 310 313 117 146 175 235 264 120 222 208 197 202 182 184 211 179 209 216 197 203 202 203 213 215 159 195 163 199 249 163 177 186 180 185 187 193 191
337 335 331 330 324 324 322 305 232 216 189 228 259 237 238 218 154 197 170 162 162 163 165 188 201 204 209 209 212 197 232 186 179 192 190 196 209 146 184 197 194 192 195 196 197
335 333 331 329 323 324 321 269 223 197 208 251 245 263 159 147 208 202 172 178 173 178 184 191 203 208 203 214 227 218 207 207 201 161 202 209 217 200 195 213 212 200 200 201 204
332 334 332 328 323 321 286 318 51 342 295 250 248 254 250 256 258 196 181 184 180 188 197 182 215 207 212 211 229 233 218 218 165 175 214 211 232 223 209 214 218 214 205 211 208
330 333 333 328 319 298 330 95 32 338 263 274 231 240 221 204 224 208 200 206 197 201 194 208 201 213 213 210 217 223 228 220 198 181 221 249 241 231 219 209 220 221 219 211 214
329 329 336 333 292 343 295 109 322 316 274 200 207 196 172 172 219 224 194 205 206 209 198 221 209 205 208 223 209 219 220 230 212 188 222 199 249 208 208 205 218 217 216 217 211
328 326 332 322 302 290 357 315 317 242 281 108 148 143 158 191 67 187 203 204 209 207 199 202 209 201 213 212 210 228 221 226 235 210 238 180 245 258 195 228 213 218 212 215 214
323 321 326 289 251 265 304 302 252 227 239 175 153 186 181 206 200 142 196 216 226 214 208 226 197 215 223 215 222 219 236 233 233 233 226 228 209 239 215 224 233 221 214 212 209
318 316 308 279 268 357 307 245 223 238 116 184 191 188 212 174 193 177 188 199 206 202 205 213 198 212 212 213 211 210 209 206 217 221 232 213 233 232 247 222 228 238 208 213 210
317 311 273 253 243 265 249 210 231 230 218 137 200 196 222 186 214 194 193 202 212 212 203 206 211 201 195 212 202 209 211 219 214 220 221 237 230 233 242 259 268 260 249 200 210
314 306 274 236 207 222 216 221 215 230 224 237 195 215 216 212 254 204 212 210 209 213 226 203 226 197 212 211 218 202 218 226 241 224 234 224 216 248 242 260 261 253 229 223 206
313 303 257 189 185 203 224 234 226 254 254 221 225 209 218 209 204 209 202 222 221 215 222 226 224 216 199 211 220 228 206 220 229 232 227 240 232 222 224 231 238 237 228 223 216
286 293 71 170 185 212 232 230 236 244 249 246 233 236 226 223 221 228 235 200 221 210 220 228 219 211 206 208 204 209 230 215 231 227 239 228 235 220 240 242 242 245 223 230 226
302 283 105 205 233 228 244 252 295 257 231 239 257 246 245 240 233 234 224 226 203 228 206 222 209 238 211 215 222 210 215 215 224 222 234 249 242 225 224 232 247 248 255 282 255
292 287 180 248 252 244 238 249 253 256 241 235 233 239 238 244 237 242 229 232 254 238 216 208 226 213 232 207 220 226 212 223 217 233 227 229 234 241 197 228 260 248 257 263 246
285 292 197 208 266 280 287 280 263 247 256 257 250 233 230 238 229 229 234 231 237 241 252 293 214 223 215 217 193 213 232 229 226 225 236 241 232 227 225 234 239 240 260 268 261
232 259 349 289 283 331 302 291 290 279 257 250 243 243 229 224 225 228 234 207 189 151 205 220 227 229 230 244 223 221 210 225 234 240 239 239 241 227 239 232 249 258 258 268 249
288 288 348 287 279 276 269 261 275 275 274 263 237 245 231 235 228 222 217 221 235 227 221 216 230 236 234 234 241 241 229 230 225 233 240 244 247 242 225 241 242 247 251 251 246
235 263 255 269 265 276 274 273 284 346 285 261 297 326 278 264 320 304 289 271 239 234 226 218 221 234 238 225 238 239 240 233 234 231 235 237 238 235 243 238 236 240 242 244 245